Cloud_Cover
100 100 100 100 100 100 100 100 100 100 100 72 100 100 100 100 96 46 22 25 57 100 100 100 100 100 98 100 100 100 100 100 100 100 100 100 28 1 0 2 4 0 0
100 100 100 100 100 100 100 100 100 100 100 100 100 100 100 93 100 27 78 38 100 100 100 100 100 100 100 100 100 100 11 100 100 100 100 100 67 0 0 0 6 4 0
100 100 100 100 100 100 100 100 100 100 100 100 100 100 100 100 100 81 90 100 85 100 100 100 100 100 100 100 100 99 100 100 100 100 100 100 0 2 1 10 0 6 7
100 100 100 100 100 100 100 100 100 100 100 100 100 100 100 100 100 100 100 58 83 90 100 100 100 100 100 100 100 100 100 100 100 100 100 59 93 0 4 11 0 0 0
100 100 100 100 100 100 100 100 100 100 100 100 100 100 100 100 100 100 100 6 69 5 52 100 100 100 100 56 53 98 100 100 98 91 8 5 9 6 11 4 8 7 1
100 100 100 100 100 100 100 100 100 100 100 100 100 100 100 100 98 100 100 61 5 28 100 100 97 100 100 89 35 51 100 100 100 100 5 5 0 3 22 4 1 6 0
100 100 100 100 100 100 100 100 100 100 100 100 100 100 100 100 100 100 100 31 36 82 100 100 100 100 100 99 100 59 100 100 100 100 5 4 0 2 0 0 1 1 0
100 100 100 100 100 100 100 100 100 100 100 100 100 100 100 100 100 100 100 71 81 57 100 100 100 100 100 73 5 54 99 100 100 37 28 0 0 3 1 0 0 5 1
100 100 100 100 100 100 100 100 100 100 100 100 100 100 100 100 100 100 100 100 91 94 100 100 100 99 56 5 87 86 100 100 94 95 10 0 1 4 4 4 4 5 5
100 100 100 100 100 100 100 100 100 100 100 100 100 100 100 100 100 100 100 100 93 99 88 100 100 44 19 11 74 95 100 18 5 13 0 0 0 0 4 5 5 5 1
100 100 100 100 100 100 100 100 100 100 100 100 100 100 100 100 100 100 100 100 100 100 98 34 8 5 8 20 5 5 44 5 5 4 5 0 5 5 5 35 65 15 5
100 100 100 100 100 100 100 100 100 100 100 100 100 100 100 100 100 100 100 100 100 99 100 96 99 56 46 80 40 78 55 33 5 2 5 5 10 5 5 5 5 39 46
100 100 100 100 100 100 100 100 100 100 100 100 100 100 100 100 100 100 100 100 100 100 95 100 100 27 23 73 74 100 99 70 2 5 5 5 5 5 5 37 63 43 9
95 100 100 100 100 100 100 100 100 100 100 100 100 100 100 100 100 100 100 100 100 100 100 100 98 100 100 89 100 100 100 77 21 5 5 5 3 5 5 27 5 5 5
100 100 100 100 100 100 100 100 100 100 100 100 100 100 100 100 100 100 100 100 100 100 100 100 100 100 100 100 100 100 100 100 100 77 22 5 5 5 5 5 5 5 5
100 98 100 100 100 100 100 100 100 100 100 100 100 100 100 100 100 100 100 100 100 100 100 100 100 100 90 100 100 100 100 100 61 75 10 5 5 5 6 39 17 17 7
100 76 95 100 100 100 100 100 100 100 100 100 100 100 100 100 100 100 100 100 100 100 100 100 100 100 100 100 100 100 100 100 100 100 5 5 5 5 5 37 5 5 61
100 100 95 100 100 100 100 100 100 100 100 100 100 100 100 100 100 100 100 100 100 100 100 100 100 100 100 100 100 100 100 100 100 100 5 5 5 5 5 88 38 26 34
100 100 100 100 100 100 100 100 100 100 100 100 100 100 100 100 100 100 100 100 100 100 100 100 100 100 100 100 100 100 100 100 100 100 82 100 96 5 5 97 96 87 100
100 100 100 100 100 100 100 100 100 100 100 100 100 100 100 100 100 100 100 100 100 100 100 100 100 100 100 100 100 100 100 100 100 97 100 100 96 9 84 95 80 41 28
100 100 100 100 100 100 100 100 100 100 100 100 100 100 100 100 100 100 100 100 100 100 100 100 100 100 100 100 100 100 86 100 100 100 100 100 94 72 100 62 77 100 40
100 100 100 100 100 100 100 100 100 100 100 100 100 100 100 100 100 100 100 100 100 100 100 100 100 100 100 100 100 100 100 100 100 100 100 100 98 87 89 67 5 88 90
100 100 100 100 100 100 100 100 100 100 100 100 100 100 100 100 100 100 100 100 100 100 100 100 100 100 100 100 100 100 100 100 100 100 100 100 100 92 70 49 100 100 91
100 100 100 100 100 100 100 100 100 100 100 100 100 100 100 100 100 100 96 100 100 100 100 100 100 100 100 100 100 100 100 100 100 100 100 100 100 100 100 68 58 57 98
100 100 100 100 100 100 96 100 92 100 100 100 100 100 100 100 100 100 100 99 100 100 100 100 100 100 100 100 100 100 100 100 100 100 100 100 100 100 100 100 100 64 76
100 100 100 100 100 81 64 100 100 100 100 100 100 100 100 100 100 100 100 100 100 100 100 100 100 100 100 100 100 100 100 100 100 100 100 100 100 100 100 100 100 100 53